La Grande Riviere, Quebec

5:36 PM EDT on April 27, 2017 (GMT -0400)
La Grande Riviere

Weather History for CYGL - June, 2013

Change the Weather History Date:

Tuesday, June 11, 2013

  Actual Average Record
Temperature  
Mean Temperature 66 °F -  
Max Temperature 78 °F 63 °F 89 °F (2012)
Min Temperature 54 °F 43 °F 28 °F (2004)
Cooling Degree Days 1    
Growing Degree Days 16 (Base 50)    
Moisture  
Dew Point 42 °F    
Average Humidity 41    
Maximum Humidity 67    
Minimum Humidity 14    
Precipitation  
Precipitation 0.00 in - - ()
Sea Level Pressure  
Sea Level Pressure 29.90 in    
Wind  
Wind Speed 8 mph ()    
Max Wind Speed 14 mph    
Max Gust Speed 21 mph    
Visibility 15.0 miles    
Events      
Averages and records for this station are not official NWS values.
T = Trace of Precipitation, MM = Missing Value Source: Averaged Metar Reports

Daily Weather History Graph

Daily Weather History Graph

Search for Another Location

Airport or City:

Trip Planner

Search our weather history database for the weather conditions in past years. The results will help you decide how hot, cold, wet, or windy it might be!

Date:

Astronomy

Jun. 11, 2013 Rise Set
Actual Time 4:41 AM EDT 9:40 PM EDT
Civil Twilight 3:48 AM EDT 10:32 PM EDT
Nautical Twilight 2:15 AM EDT 12:07 AM EDT
Astronomical Twilight Sun does not set Sun does not set
Moon 7:42 AM EDT (6/11) 11:16 PM EDT (6/11)
Length of Visible Light 18h 44m
Length of Day
16h 58m
Waxing Crescent, 8% of the Moon is Illuminated
Jun 11
Waxing Crescent
Jun 16
First Quarter
Jun 23
Full
Jun 30
Last Quarter
Jul 8
New

Hourly Weather History & Observations

Time (EDT) Temp. Dew Point Humidity Pressure Visibility Wind Dir Wind Speed Gust Speed Precip Events Conditions
12:00 AM 59.0 °F 44.6 °F 59% 29.97 in 15.0 mi NE 5.8 mph - N/A   Partly Cloudy
1:00 AM 59.0 °F 42.8 °F 55% 29.97 in 15.0 mi NE 5.8 mph - N/A   Partly Cloudy
2:00 AM 58 °F 45 °F 51% 29.97 in 15 mi ENE 6.9 mph - -   Clear
2:00 AM 57.2 °F 44.6 °F 63% 29.96 in 15.0 mi ENE 6.9 mph - N/A   Partly Cloudy
3:00 AM 57.2 °F 44.6 °F 63% 29.96 in 15.0 mi East 8.1 mph - N/A   Partly Cloudy
4:00 AM 57.2 °F 42.8 °F 59% 29.96 in 15.0 mi East 10.4 mph - N/A   Partly Cloudy
5:00 AM 55.4 °F 42.8 °F 63% 29.95 in 15.0 mi East 10.4 mph - N/A   Mostly Cloudy
6:00 AM 55.4 °F 44.6 °F 67% 29.95 in 15.0 mi ENE 6.9 mph - N/A   Mostly Cloudy
7:00 AM 60.8 °F 44.6 °F 55% 29.95 in 15.0 mi East 9.2 mph - N/A   Scattered Clouds
8:00 AM 64 °F 47 °F 43% 29.94 in 15 mi East 8.1 mph - -   Clear
8:00 AM 64.4 °F 46.4 °F 52% 29.94 in 15.0 mi East 9.2 mph - N/A   Scattered Clouds
9:00 AM 69.8 °F 46.4 °F 43% 29.93 in 15.0 mi ESE 10.4 mph - N/A   Mostly Cloudy
10:00 AM 73.4 °F 48.2 °F 41% 29.92 in 15.0 mi ENE 8.1 mph - N/A   Mostly Cloudy
11:00 AM 75.2 °F 46.4 °F 36% 29.91 in 15.0 mi ENE 10.4 mph 20.7 mph N/A   Mostly Cloudy
12:00 PM 77.0 °F 44.6 °F 32% 29.90 in 15.0 mi East 11.5 mph - N/A   Mostly Cloudy
1:00 PM 77.0 °F 39.2 °F 26% 29.89 in 15.0 mi ENE 13.8 mph - N/A   Mostly Cloudy
2:00 PM 78 °F 37 °F 14% 29.88 in 15 mi East 13.8 mph - -   Scattered Clouds
2:00 PM 77.0 °F 37.4 °F 24% 29.88 in 15.0 mi East 13.8 mph - N/A   Mostly Cloudy
3:00 PM 78.8 °F 39.2 °F 24% 29.86 in 15.0 mi ENE 11.5 mph 18.4 mph N/A   Mostly Cloudy
4:00 PM 77.0 °F 41.0 °F 28% 29.86 in 15.0 mi ENE 10.4 mph - N/A   Mostly Cloudy
5:00 PM 75.2 °F 37.4 °F 25% 29.85 in 15.0 mi ENE 11.5 mph - N/A   Mostly Cloudy
6:00 PM 73.4 °F 41.0 °F 31% 29.83 in 15.0 mi ENE 9.2 mph - N/A   Mostly Cloudy
7:00 PM 71.6 °F 42.8 °F 35% 29.82 in 15.0 mi ENE 8.1 mph - N/A   Mostly Cloudy
8:00 PM 72 °F 39 °F 19% 29.83 in 15 mi East 8.1 mph - -   Scattered Clouds
8:00 PM 71.6 °F 39.2 °F 31% 29.82 in 15.0 mi East 6.9 mph - N/A   Mostly Cloudy
9:00 PM 69.8 °F 37.4 °F 31% 29.82 in 15.0 mi ENE 6.9 mph - N/A   Mostly Cloudy
10:00 PM 66.2 °F 37.4 °F 35% 29.82 in 15.0 mi East 10.4 mph - N/A   Mostly Cloudy
11:00 PM 66.2 °F 37.4 °F 35% 29.82 in 15.0 mi East 11.5 mph - N/A   Mostly Cloudy